TimeCST,TemperatureF,Dew PointF,Humidity,Sea Level PressureIn,VisibilityMPH,Wind Direction,Wind SpeedMPH,Gust SpeedMPH,PrecipitationIn,Events,Conditions,WindDirDegrees,DateUTC
12:57 AM,35.8,31.8,86,30.32,10.0,NNE,3.5,-,N/A,,Clear,30,2013-02-18 06:57:00
1:57 AM,36.3,32.4,86,30.31,10.0,ENE,3.5,-,N/A,,Clear,60,2013-02-18 07:57:00
2:55 AM,37.0,33.8,88,30.30,10.0,NE,3.5,-,N/A,,Partly Cloudy,50,2013-02-18 08:55:00
3:55 AM,36.3,33.1,88,30.30,10.0,NNE,3.5,-,N/A,,Partly Cloudy,30,2013-02-18 09:55:00
4:55 AM,36.3,33.4,89,30.31,10.0,NNE,3.5,-,N/A,,Partly Cloudy,30,2013-02-18 10:55:00
5:55 AM,36.5,33.8,90,30.31,10.0,NE,3.5,-,N/A,,Partly Cloudy,40,2013-02-18 11:55:00
6:55 AM,40.6,36.5,85,30.32,10.0,NE,2.3,-,N/A,,Scattered Clouds,50,2013-02-18 12:55:00
7:55 AM,48.6,40.6,74,30.34,10.0,East,8.1,-,N/A,,Scattered Clouds,80,2013-02-18 13:55:00
8:55 AM,55.6,42.1,60,30.34,10.0,East,8.1,-,N/A,,Scattered Clouds,100,2013-02-18 14:55:00
9:55 AM,60.1,39.0,46,30.35,10.0,SE,16.1,-,N/A,,Scattered Clouds,130,2013-02-18 15:55:00
10:55 AM,60.8,39.7,46,30.35,10.0,SE,15.0,-,N/A,,Scattered Clouds,140,2013-02-18 16:55:00
11:55 AM,60.6,41.2,49,30.33,10.0,SE,17.3,-,N/A,,Scattered Clouds,140,2013-02-18 17:55:00
12:55 PM,61.2,40.5,47,30.31,10.0,SSE,17.3,21.9,N/A,,Scattered Clouds,150,2013-02-18 18:55:00
1:55 PM,59.4,40.6,50,30.30,10.0,SSE,17.3,23.0,N/A,,Scattered Clouds,150,2013-02-18 19:55:00
2:55 PM,59.5,41.5,51,30.28,10.0,SE,12.7,-,N/A,,Mostly Cloudy,140,2013-02-18 20:55:00
3:55 PM,58.8,43.0,56,30.24,10.0,ESE,16.1,-,N/A,,Scattered Clouds,120,2013-02-18 21:55:00
4:55 PM,56.8,43.7,61,30.21,10.0,ESE,18.4,25.3,N/A,,Scattered Clouds,120,2013-02-18 22:55:00
5:55 PM,55.9,44.2,65,30.21,10.0,SE,13.8,-,N/A,,Mostly Cloudy,130,2013-02-18 23:55:00
6:55 PM,56.7,45.3,66,30.20,10.0,SE,12.7,21.9,N/A,,Overcast,140,2013-02-19 00:55:00
7:55 PM,57.0,45.7,66,30.19,10.0,SE,17.3,-,N/A,,Overcast,140,2013-02-19 01:55:00
8:55 PM,57.2,47.3,69,30.18,10.0,SE,12.7,-,N/A,,Overcast,140,2013-02-19 02:55:00
9:55 PM,58.1,48.0,69,30.15,10.0,SSE,16.1,-,N/A,,Mostly Cloudy,150,2013-02-19 03:55:00
10:55 PM,59.4,49.6,70,30.13,10.0,SSE,17.3,25.3,N/A,,Mostly Cloudy,160,2013-02-19 04:55:00
11:55 PM,60.3,51.6,73,30.12,10.0,SSE,15.0,24.2,N/A,,Mostly Cloudy,160,2013-02-19 05:55:00